FW9465 Weather Reports


Display with metric or nautical units.
time (UTC)temp
F
wind
direction
speed
MPH
gust
MPH
rain 1hr
in
rain 24hr
in
rain mn
in
humidity
%
barometer
mb
20260504182319 78 180 10.0 16.0 0.00 0.00 0.00 56 1010.0
20260504181332 79 169 9.0 14.0 0.00 0.00 0.00 55 1010.3
20260504180317 78 190 7.0 15.0 0.00 0.00 0.00 55 1010.3
20260504175332 77 179 8.0 15.0 0.00 0.00 0.00 56 1010.5
20260504174418 77 163 5.0 14.0 0.00 0.00 0.00 56 1010.7
20260504173421 76 182 9.0 14.0 0.00 0.00 0.00 57 1010.8
20260504172418 75 188 10.0 16.0 0.00 0.00 0.00 58 1010.8
20260504170517 75 182 14.0 25.0 0.00 0.00 0.00 58 1011.2
20260504150617 69 174 15.0 23.0 0.00 0.00 0.00 65 1012.5
20260504140717 66 169 9.0 15.0 0.00 0.00 0.00 69 1012.3
20260504130817 63 169 12.0 19.0 0.00 0.00 0.00 74 1012.8
20260504110132 59 163 5.0 9.0 0.00 0.00 0.00 76 1012.5
20260504100316 59 188 4.0 7.0 0.00 0.00 0.00 76 1012.8
20260504081415 58 157 5.0 9.0 0.00 0.00 0.00 76 1013.8
20260504080418 58 162 4.0 6.0 0.00 0.00 0.00 75 1013.8
20260504045910 60 164 4.0 8.0 0.00 0.00 0.00 70 1015.7
20260504045008 60 166 4.0 7.0 0.00 0.00 0.00 69 1015.7
20260504044008 61 157 4.0 5.0 0.00 0.00 0.00 69 1015.8
20260504043009 61 157 5.0 8.0 0.00 0.00 0.00 68 1015.7
20260504042009 61 171 4.0 6.0 0.00 0.00 0.00 67 1015.8
20260504040125 62 164 5.0 6.0 0.00 0.00 0.00 65 1016.2
20260504033206 63 167 4.0 7.0 0.00 0.00 0.00 61 1016.1
20260504030207 65 161 2.0 4.0 0.00 0.00 0.00 56 1016.0
20260504025210 66 157 3.0 5.0 0.00 0.00 0.00 55 1015.8
20260504024224 67 157 3.0 6.0 0.00 0.00 0.00 54 1015.6
20260504023324 67 163 6.0 10.0 0.00 0.00 0.00 52 1015.7
20260504022309 68 157 7.0 8.0 0.00 0.00 0.00 51 1015.4
20260504021308 68 157 6.0 8.0 0.00 0.00 0.00 51 1015.4
20260504020307 69 164 6.0 10.0 0.00 0.00 0.00 50 1015.4
20260504015308 69 157 5.0 8.0 0.00 0.00 0.00 49 1015.5
20260504014407 70 168 6.0 9.0 0.00 0.00 0.00 47 1015.6
20260504013408 71 158 6.0 8.0 0.00 0.00 0.00 46 1015.4
20260504012423 72 163 4.0 6.0 0.00 0.00 0.00 45 1015.1
20260504011423 73 158 7.0 9.0 0.00 0.00 0.00 43 1015.1
20260504011308 73 157 7.0 10.0 0.00 0.00 0.00 43 1015.1
20260504010306 74 157 6.0 11.0 0.00 0.00 0.00 41 1015.0
20260504005309 74 163 6.0 11.0 0.00 0.00 0.00 39 1015.1
20260504004307 76 156 8.0 11.0 0.00 0.00 0.00 37 1014.9
20260504002407 79 161 4.0 7.0 0.00 0.00 0.00 33 1014.9
20260504001506 80 163 8.0 11.0 0.00 0.00 0.00 33 1015.0
20260504000509 80 178 5.0 10.0 0.00 0.00 0.00 33 1015.2
20260503235522 81 173 5.0 7.0 0.00 0.00 0.00 32 1015.3
20260503234607 81 165 5.0 8.0 0.00 0.00 0.00 31 1015.3
20260503233607 81 163 8.0 12.0 0.00 0.00 0.00 31 1015.0
20260503232623 82 179 4.0 11.0 0.00 0.00 0.00 31 1015.2
20260503231709 82 173 6.0 11.0 0.00 0.00 0.00 30 1015.4
20260503230806 82 188 8.0 13.0 0.00 0.00 0.00 32 1015.4
20260503225810 82 181 5.0 9.0 0.00 0.00 0.00 30 1015.5
20260503224822 82 167 10.0 14.0 0.00 0.00 0.00 30 1015.6
20260503223909 82 194 9.0 17.0 0.00 0.00 0.00 29 1015.6
20260503222908 82 163 7.0 12.0 0.00 0.00 0.00 30 1015.7
20260503222007 82 195 8.0 13.0 0.00 0.00 0.00 30 1015.5
20260503221008 83 171 4.0 11.0 0.00 0.00 0.00 30 1016.0
20260503220008 83 168 6.0 11.0 0.00 0.00 0.00 29 1016.0
20260503215108 83 199 6.0 9.0 0.00 0.00 0.00 29 1016.2
20260503214208 83 188 8.0 13.0 0.00 0.00 0.00 29 1016.4
20260503212307 83 163 9.0 15.0 0.00 0.00 0.00 30 1016.7
20260503211324 83 168 7.0 12.0 0.00 0.00 0.00 29 1016.7
20260503210308 82 185 5.0 10.0 0.00 0.00 0.00 29 1017.0
20260503205406 82 183 7.0 11.0 0.00 0.00 0.00 28 1017.2
20260503204423 82 199 6.0 15.0 0.00 0.00 0.00 29 1017.2
20260503203407 81 168 7.0 11.0 0.00 0.00 0.00 30 1017.4
20260503202424 82 166 10.0 14.0 0.00 0.00 0.00 29 1017.6
20260503201408 82 156 7.0 12.0 0.00 0.00 0.00 28 1018.0
20260503200428 81 157 5.0 5.0 0.00 0.00 0.00 30 1018.0
20260503195427 81 173 7.0 11.0 0.00 0.00 0.00 29 1018.2
20260503194429 82 165 8.0 11.0 0.00 0.00 0.00 30 1018.3
20260503193428 81 190 6.0 12.0 0.00 0.00 0.00 30 1018.3
20260503192428 81 190 7.0 11.0 0.00 0.00 0.00 30 1018.7
20260503191426 80 182 3.0 8.0 0.00 0.00 0.00 32 1018.9
20260503190428 80 194 6.0 10.0 0.00 0.00 0.00 32 1019.0
20260503185429 80 245 8.0 12.0 0.00 0.00 0.00 33 1019.0
20260503183427 80 225 9.0 13.0 0.00 0.00 0.00 34 1019.3